Helena, MT

12:29 AM MDT on April 29, 2017 (GMT -0600)
Capital High | | Change Station

Elev 3871 ft 46.62 °N, 112.05 °W | Updated 5 seconds ago

Mostly Cloudy
Mostly Cloudy
36.1 °F
Feels Like 36 °F
N
0.0
Wind Variable Wind from West

Today
High -- | Low -- °F
--% Chance of Precip.
Yesterday
High -- | Low -- °F
Precip. -- in
Pressure 30.26 in
Visibility 10.0 miles
Clouds Mostly Cloudy 10000 ft
Windchill 36 °F
Dew Point 33 °F
Humidity 91%
Rainfall 0.00 in
Snow Depth Not available.
6:16 AM 8:35 PM
Waxing Crescent, 11% visible
METAR KHLN 290553Z AUTO 16003KT 10SM BKN100 04/00 A3018 RMK AO2 SLP245 T00390000 10089 20022 51012
Pressure 30.26 in
Visibility 10.0 miles
Clouds Mostly Cloudy 10000 ft
Windchill 36 °F
Dew Point 33 °F
Humidity 91%
Rainfall 0.00 in
Snow Depth Not available.
6:16 AM 8:35 PM
Waxing Crescent, 11% visible
METAR KHLN 290553Z AUTO 16003KT 10SM BKN100 04/00 A3018 RMK AO2 SLP245 T00390000 10089 20022 51012

Get Severe Weather Alerts

Thanks for signing up!

Be on the lookout for a verification email in your inbox.

You'll start receiving the daily forecast at 8 AM.

×

10-Day Weather Forecast

Almanac

Astronomy

Apr. 29, 2017 Rise Set
Actual Time
Civil Twilight
Nautical Twilight
Astronomical Twilight
Moon
Length of Visible Light
Length of Day
Tomorrow will be .
, % of the Moon is Illuminated

Today's Extremes

State Highs State Lows

Community

WunderPhotos

WunderBlog® & News

Nearby

Air Quality

  Air Quality AQ Index Pollutant
Not available.

Snow Depth

Station Depth Elevation

Earthquake Activity

City Distance Mag. Time & Date
Minimum magnitude displayed is 2.5.

Coastal Water Temperatures

Place Temperature

Stations

Nearby Weather Stations

Station Location Temp. Windchill Dew Point Humidity Wind Precip. Elev Updated Type
                   

Watches & Warnings

There are currently no watches in effect.